Location: La Trinit�
(48.1620°N, 3.4512°W)
Time: 16:25:52
(UTC+00:00)

BREEZE-M R/B - Pass Details

Date: 08 May 2021
Orbit: 311 x 4501 km, 49.7° (Epoch: 23 June)

Event Time Altitude Azimuth Distance (km) Brightness Sun altitude
Rises 20:03:01 0° 220° (SW) 2,554 6.3 -4.5°
Reaches altitude 10° 20:05:42 10° 204° (SSW) 1,391 4.8 -4.9°
Maximum altitude 20:07:57 21° 150° (SSE) 795 3.2 -5.2°
Drops below altitude 10° 20:09:55 10° 95° (E) 1,204 4.0 -5.5°
Enters shadow 20:11:47 - 79° (ENE) 1,980 5.2 -5.7°
